Regional Weather Roundup
Issued by NWS

Home | Current Version | Previous Version | Graphics & Text | Print | Product List | Glossary On
Versions: 1 2 3 4 5 6 7 8 9 10 11 12 13 14 15 16 17 18 19 20 21 22 23 24 25 26 27
000
ASUS45 KSLC 240310
RWRUT

UTAH REGIONAL WEATHER ROUNDUP
NATIONAL WEATHER SERVICE SALT LAKE CITY UT
900 PM MDT SUN APR 23 2017

UTZ001>011-023>025-240400-

NORTHERN UTAH

CITY           SKY/WX    TMP DP  RH WIND       PRES   REMARKS
BRIGHAM CITY   PTCLDY    53  39  59 CALM      29.79S
HILL AFB       CLEAR     52  35  52 SE10      29.81S
LOGAN          PTCLDY    50  39  66 SE6       29.80F
OGDEN          PTCLDY    52  36  54 S7        29.79S
SALT LAKE CITY PTCLDY    57  38  48 SE7       29.80F
TOOELE VALLEY  MOCLDY    46  41  81 SW8       29.82R
WENDOVER       CLEAR     57  40  52 S5        29.80R
HEBER CITY     CLOUDY    46  37  71 SW3       29.85S
WEST JORDAN    PTCLDY    58  45  62 CALM      29.83S

$$

UTZ011>015-024>027-240400-

CENTRAL/NORTHEAST UTAH

CITY           SKY/WX    TMP DP  RH WIND       PRES   REMARKS
PROVO AIRPORT  CLOUDY    51  45  79 SE7       29.84S
MOAB/CANYONLAN CLOUDY    70  18  13 SW12      29.63R
DELTA          MOCLDY    54  34  47 CALM      29.83F
PRICE          CLOUDY    55  35  47 NW18G26   29.81R
ROOSEVELT      CLOUDY    55  36  47 W18G28    29.80R
VERNAL         CLOUDY    60  31  33 W14       29.74R

$$

UTZ013>016-019>022-027-240400-

SOUTHERN UTAH

CITY           SKY/WX    TMP DP  RH WIND       PRES   REMARKS
BRYCE CANYON   MOCLDY    50  28  42 NW15G22   29.93R
CEDAR CITY     CLOUDY    56  31  38 E3        29.84S
MILFORD        MOCLDY    54  36  50 W6        29.81R
ST GEORGE      CLOUDY    78  24  13 W7        29.67R
HANKSVILLE     MOCLDY    64  32  29 NW29G44   29.72R
BLANDING       MOCLDY    65  15  14 SW12      29.85R

$$

REGIONAL REPORTS     COLORADO/ARIZONA

CITY           SKY/WX    TMP DP  RH WIND       PRES   REMARKS
CRAIG, CO      CLOUDY    50  32  50 SW8       29.76R
GRAND JUNCTION CLOUDY    64  23  21 E6        29.67F
RIFLE, CO      CLOUDY    63  24  22 CALM      29.72F
MONTROSE, CO   CLOUDY    60  20  21 S7        29.77F
CORTEZ, CO     CLOUDY    59  21  23 S10       29.82S
COLORADO CITY    N/A     70  19  14 W12G24    29.82R
PAGE, AZ       PTCLDY    77  10   7 W14G25    29.71R
GRAND CANYON   PTCLDY    60   9  13 SW15G23   29.94R
KINGMAN, AZ    CLEAR     67  20  16 SE9       29.76S
FLAGSTAFF, AZ  CLEAR     59  18  20 SW14      29.95S

$$

REGIONAL REPORTS    NEVADA/IDAHO/WYOMING

CITY           SKY/WX    TMP DP  RH WIND       PRES   REMARKS
LAS VEGAS, NV  PTCLDY    82  14   8 SW12G20   29.64R
ELY, NY        PTCLDY    41  31  67 S7        29.87S
ELKO, NV       PTCLDY    54  23  30 S3        29.82R
POCATELLO, ID  CLEAR     46  36  68 S7        29.79S
BURLEY, ID     MOCLDY    54  36  50 W7        29.77R
FORT BRIDGER,  LGT RAIN  42  35  75 CALM      29.94R
EVANSTON, WY   CLOUDY    43  33  68 S6        29.90R
ROCK SPRINGS,  LGT RAIN  44  38  79 CALM      29.87R
KEMMERER, WY     N/A     37  30  75 W8        29.88R WCI  31

$$




USA.gov is the U.S. government's official web portal to all federal, state and local government web resources and services.